Location: Newark
(59.8814°N, 10.8258°E)
Time: 02:06:04
(UTC+00:00)

Envisat - Pass Details

Date: 30 January 2020
Orbit: 764 x 766 km, 98.1° (Epoch: 25 February)

Event Time Altitude Azimuth Distance (km) Brightness Sun altitude
Rises 16:06:15 0° 147° (SSE) 3,229 6.2 -5.3°
Reaches altitude 10° 16:08:34 10° 144° (SE) 2,306 5.4 -5.5°
Maximum altitude 16:13:34 61° 65° (ENE) 875 3.0 -6.1°
Drops below altitude 10° 16:18:36 10° 347° (NNW) 2,319 5.4 -6.7°
Sets 16:20:56 0° 344° (NNW) 3,249 6.2 -6.9°
